Terminal Aerodrome Forecast
Issued by NWS Jacksonville, FL

Home | Current Version | Previous Version | Text Only | Print | Product List | Glossary On
Versions: 1 2 3 4 5 6 7 8 9 10 11 12 13 14 15 16 17 18 19 20 21 22
000
FTUS42 KJAX 221200 AAB
TAFSSI
TAF AMD
KSSI 221259Z 2213/2312 03004KT 5SM BR VCSH OVC004
      TEMPO 2213/2215 2SM BR
     FM221500 06006KT 6SM -RA BR OVC004
     FM230100 13004KT 5SM BR VCSH OVC003=

USA.gov is the U.S. government's official web portal to all federal, state and local government web resources and services.